Voltar ao catálogo

THOR ABLESTAR DEB

AtivoLEO
NORAD 408·DEBRIS·🇺🇸 United States

Lançado Jun 29, 1961 de Cape Canaveral Space Force Station

Loading…

Próximas Passagens (próximas 24 horas)

TLE

AtualizadoSource: Space-Track

Época: Sep 14, 2026, 11:20 UTC

1 00408U 61015EH  26257.47265199  .00000238  00000-0  31038-3 0  9991
2 00408  66.7837 256.0626 0057996  58.3187  19.7166 13.77219969317999

Acompanhe THOR ABLESTAR DEB em tempo real com AllMySat

Download on the App Store